SCP
-0 -0 -0 -0 -0 0 -0 -0 -0 -0 -0 -0 -0 -0 -0 -0 -0 -0 -0 -0 -0 -0 -0 -0 -0 -0 -0 -0 -0 -0 -0 -0 -0 0 0 0 0 0 0 0 0 0 0 0 0 0 0 0 0
-0 -0 -0 -0 0 0 -0 -0 -0 -0 -0 -0 -0 -0 -0 -0 -0 -0 -0 -0 -0 -0 -0 -0 -0 -0 -0 -0 -0 -0 -0 -0 0 0 0 0 0 0 0 0 0 0 0 0 0 1 0 0 0
-0 0 0 -0 0 0 -0 -0 -0 -0 -0 -0 -0 -0 -0 -0 -0 -0 -0 -0 -0 -0 -0 -0 -0 -0 -0 -0 -0 -0 -0 -0 0 0 0 0 0 0 0 0 0 0 0 0 0 0 1 1 1
0 -0 0 0 -0 -0 -0 -0 -0 -0 -0 -0 -0 -0 -0 -0 -0 -0 -0 -0 -0 -0 -0 -0 -0 -0 -0 -0 -0 -0 0 0 0 0 0 0 0 0 0 0 0 0 0 0 0 0 0 0 1
0 -0 -0 -0 -0 -0 -0 -0 -0 -0 -0 -0 -0 -0 -0 -0 -0 -0 -0 -0 -0 -0 -0 -0 -0 -0 -0 -0 -0 -0 0 0 0 0 0 0 0 0 0 0 0 0 0 0 0 0 0 0 0
0 -0 0 -0 -0 -0 -0 -0 -0 -0 -0 -0 -0 -0 0 0 -0 -0 -0 0 0 -0 -0 0 -0 -0 -0 -0 0 0 0 0 0 0 0 0 0 0 0 0 0 0 0 0 0 0 0 0 0
0 0 -0 -0 -0 -0 -0 -0 -0 -0 -0 -0 0 0 0 0 -0 0 -0 0 0 0 0 0 0 0 0 0 0 0 0 0 0 0 0 0 0 0 0 0 0 0 0 0 0 0 0 0 0
0 0 -0 -0 -0 -0 -0 -0 -0 -0 -0 0 -0 0 0 0 0 0 0 0 -0 -0 -0 0 0 0 0 0 0 0 0 0 0 0 0 0 0 0 0 0 0 0 0 1 0 0 0 0 0
-0 0 -0 -0 -0 -0 -0 -0 -0 -0 -0 -0 0 -0 0 0 0 0 0 0 0 0 0 0 0 0 0 0 0 0 0 0 0 0 0 0 0 0 0 0 0 0 0 0 0 0 0 0 0
0 0 -0 -0 -0 -0 0 -0 -0 0 -0 -0 0 0 0 0 0 0 0 0 0 0 0 0 0 0 -0 -0 -0 -0 0 0 0 0 0 0 0 0 0 0 0 0 0 0 0 0 0 0 0
-0 -0 -0 -0 -0 -0 -0 -0 -0 -0 0 0 0 0 0 0 0 0 0 0 0 0 0 0 0 0 0 0 0 0 0 0 0 0 0 0 0 0 0 0 0 0 0 0 0 1 1 1 1
-0 -0 -0 -0 -0 -0 -0 -0 -0 -0 0 0 0 0 0 0 0 0 0 0 0 0 0 0 0 0 0 0 0 0 0 0 0 0 0 0 0 0 0 0 0 0 0 0 0 0 0 0 0
-0 -0 -0 -0 -0 -0 -0 -0 0 0 0 0 0 0 0 0 0 0 0 0 0 0 0 0 0 0 0 0 0 0 0 0 0 0 0 0 0 0 0 0 0 0 0 0 0 0 0 0 0
-0 -0 -0 -0 -0 -0 -0 0 0 0 0 0 0 0 0 0 0 0 0 0 0 0 0 0 0 0 0 0 0 0 0 0 0 0 0 0 0 0 0 0 0 0 0 0 0 0 0 0 0
-0 -0 -0 -0 -0 0 0 0 0 0 0 0 0 0 0 0 0 0 0 0 0 0 0 0 0 0 0 0 0 0 0 0 0 0 0 0 0 0 0 0 0 0 0 0 0 0 0 0 0
0 0 0 -0 0 0 0 0 0 0 0 0 0 0 0 0 0 0 0 0 0 0 0 0 0 0 0 0 0 0 0 0 0 0 0 0 0 0 0 0 0 0 0 0 0 0 0 0 0
0 0 -0 0 0 0 0 1 0 1 0 0 0 0 0 0 0 0 0 0 0 0 0 0 0 0 0 0 0 0 0 0 0 0 0 0 0 0 0 0 0 0 0 0 0 0 0 0 0
0 0 0 0 0 0 1 1 0 0 0 0 0 0 0 0 0 0 0 0 0 0 0 0 0 0 0 0 0 0 0 0 0 0 0 0 0 0 0 0 0 0 0 0 0 0 0 0 0
0 0 0 0 1 0 1 2 0 0 0 0 0 0 0 0 0 0 0 0 0 0 0 0 0 0 0 0 0 0 0 0 0 0 0 0 0 0 0 0 0 0 0 0 0 0 0 0 0
-0 0 0 0 0 0 1 1 1 0 0 0 0 0 0 0 0 0 0 0 0 0 0 0 0 0 0 0 0 0 -0 0 0 0 0 0 -0 -0 -0 -0 0 0 0 0 0 0 0 0 0
0 0 -0 0 1 0 1 1 0 0 0 0 0 0 0 0 0 0 0 0 0 0 0 0 0 0 0 0 0 0 0 0 0 0 0 0 -0 -0 -0 0 0 -0 0 0 0 0 0 0 0
0 0 0 0 0 0 1 0 0 0 0 0 0 0 0 0 0 0 0 0 0 0 0 0 0 0 0 0 0 0 0 0 0 0 0 0 0 0 0 0 -0 0 0 0 0 0 0 0 0
0 0 0 0 0 0 0 0 0 0 0 0 0 0 0 0 0 0 0 0 0 0 0 0 0 0 0 0 0 0 0 0 0 0 0 -0 0 0 0 0 -0 -0 0 0 0 0 0 0 0
0 0 0 0 0 0 0 0 0 0 0 0 0 0 0 0 0 0 0 0 0 0 0 0 0 0 0 0 0 0 0 0 0 0 0 0 0 0 -0 0 -0 -0 0 -0 -0 0 0 0 0
0 0 0 0 0 0 0 0 1 1 0 0 0 0 0 0 0 0 0 0 0 0 0 0 0 0 0 0 0 0 0 0 0 0 0 0 0 0 -0 0 0 0 -0 -0 -0 -0 0 0 0
0 0 0 0 0 -0 0 0 0 0 0 0 0 0 0 0 0 0 0 0 0 0 0 0 0 0 0 0 0 0 0 0 0 -0 0 0 0 0 0 0 0 0 -0 0 -0 0 0 0 0
0 -0 0 0 -0 -0 0 0 -0 0 0 0 0 0 0 0 0 0 0 0 0 0 0 0 0 0 0 0 0 0 0 0 0 0 0 0 -0 0 0 -0 0 -0 -0 -0 -0 -0 -0 0 0
0 0 0 0 0 0 0 0 0 0 0 0 0 0 0 0 0 0 0 0 0 0 0 0 0 0 0 0 0 0 0 0 0 0 0 0 0 0 -0 -0 0 -0 -0 -0 0 0 0 0 0
-0 0 0 0 0 0 0 0 0 0 0 0 0 0 0 0 0 0 0 0 0 0 0 0 0 0 0 0 0 0 0 0 0 0 0 0 0 -0 0 0 0 0 0 0 0 0 0 0 0
0 0 0 0 0 0 0 0 0 0 0 0 0 0 0 0 0 0 0 0 0 0 0 0 0 0 0 0 0 0 0 0 0 0 0 0 0 0 0 0 0 0 0 0 0 0 0 0 0
Wind_Speed_500mb
6 11 10 21 13 12 25 17 11 23 33 34 38 38 38 48 30 16 20 19 20 20 19 19 18 16 14 9 5 4 4 4 3 4 4 5 5 6 6 6 6 7 7 8 10 8 9 11 16
5 16 24 32 6 15 23 29 30 25 23 30 36 45 50 47 46 28 25 28 25 23 21 20 18 16 14 12 9 6 5 5 5 5 4 3 4 5 6 6 6 6 7 7 8 9 13 16 14
7 21 15 10 15 7 27 30 28 27 11 21 24 35 23 19 33 18 26 28 26 28 22 21 19 18 16 15 14 14 12 8 5 7 10 7 7 8 7 6 5 5 6 7 10 12 16 13 12
14 28 22 6 35 33 29 26 34 32 28 30 43 32 25 36 21 23 26 26 25 27 27 21 19 17 18 19 18 15 13 12 9 7 2 4 5 8 9 8 5 3 4 6 8 10 14 14 11
18 31 9 26 29 27 25 31 18 24 7 26 35 35 26 30 31 31 33 28 30 28 29 25 19 18 17 16 15 12 9 8 9 8 4 5 5 7 9 9 8 6 5 2 3 6 8 11 12
37 30 10 26 33 25 24 27 30 25 31 38 37 27 14 33 35 32 32 28 26 24 23 27 24 21 18 17 16 14 9 6 5 5 6 6 8 11 13 15 15 14 13 11 11 9 7 7 8
24 25 28 30 29 30 18 31 27 36 33 25 6 15 12 22 24 26 32 32 30 30 30 30 33 37 28 23 22 19 16 12 9 7 8 10 14 16 17 21 23 23 23 21 21 20 17 16 14
44 12 22 22 28 34 20 29 19 24 20 10 14 10 10 20 21 24 28 31 27 28 28 27 17 20 23 23 23 20 16 14 14 15 13 9 17 18 14 26 24 27 31 30 30 30 26 24 23
67 8 30 30 20 34 25 28 23 24 32 29 20 26 25 24 25 24 30 32 27 32 30 24 22 21 22 24 28 26 24 24 23 20 17 16 16 16 12 19 31 33 30 32 36 35 32 31 27
40 7 37 27 23 28 18 25 23 17 27 29 33 30 30 25 19 24 26 27 28 29 27 27 29 34 37 36 36 36 30 25 29 31 32 31 26 27 28 32 33 32 32 32 35 38 36 32 21
46 30 29 27 25 27 30 26 24 26 19 20 25 26 28 29 28 27 30 31 33 30 26 26 26 25 22 21 22 20 23 25 24 27 30 24 24 23 22 24 18 21 30 22 19 15 24 29 40
22 27 31 27 27 28 28 30 29 27 24 28 28 25 26 28 29 29 31 28 24 22 23 21 21 24 27 23 25 26 26 28 29 30 31 29 24 23 25 25 23 25 19 23 26 33 37 44 44
24 26 27 24 22 27 28 27 30 33 29 25 25 24 26 29 33 32 32 23 19 21 20 19 21 24 25 26 29 30 30 31 34 32 32 33 25 28 32 24 24 27 28 24 21 18 19 24 33
29 29 28 31 32 33 37 35 13 25 26 24 24 23 23 25 24 22 19 15 15 17 19 18 21 26 30 32 36 36 34 36 37 36 35 32 28 27 29 33 25 30 30 29 21 20 26 29 30
34 28 27 30 35 30 32 20 22 29 22 25 22 20 21 23 19 17 12 12 12 13 17 21 21 27 32 34 40 37 38 36 36 32 30 28 31 32 29 27 33 33 38 28 35 34 30 34 33
24 31 18 26 26 25 11 17 25 25 23 20 20 19 19 18 16 13 10 8 11 13 18 21 25 28 33 34 39 38 38 34 30 29 25 39 38 31 34 36 31 31 36 28 27 33 31 37 37
16 20 51 32 26 17 19 27 26 21 21 21 20 20 22 18 14 10 8 11 13 16 19 20 25 26 33 35 37 36 31 28 28 29 26 27 35 35 36 29 32 42 33 31 36 39 35 41 33
25 22 23 3 28 16 9 30 30 24 20 22 27 24 20 16 11 4 7 9 13 15 19 21 23 30 37 33 31 28 27 27 26 26 37 48 38 31 35 34 34 38 30 27 33 31 26 34 36
27 34 17 29 9 11 9 27 23 25 30 22 26 26 21 16 9 4 4 7 11 15 17 24 27 32 32 30 30 29 29 27 24 30 26 45 37 30 29 30 34 33 30 29 29 27 31 27 31
36 30 33 16 10 9 14 23 24 28 29 30 29 28 24 15 17 8 9 8 10 13 19 23 27 32 28 27 30 33 26 24 18 29 33 30 27 28 29 29 30 28 32 31 32 27 28 30 31
23 36 49 24 3 23 15 25 25 26 22 28 24 22 18 31 16 13 10 8 10 14 17 23 25 27 26 31 28 31 26 20 30 24 27 31 26 30 28 28 28 30 31 28 30 27 26 26 23
19 24 17 25 28 29 30 12 33 29 26 31 31 28 13 9 9 4 8 2 5 11 17 21 22 32 22 31 28 30 28 28 23 24 27 30 30 28 32 26 24 19 19 20 22 20 20 20 20
16 25 31 43 32 41 25 16 11 29 24 15 17 28 18 17 6 6 6 4 7 13 20 20 20 26 27 25 27 25 27 23 23 27 28 31 30 33 28 28 27 23 19 19 17 18 19 19 16
8 23 36 25 9 1 18 9 15 13 17 20 26 21 20 15 10 10 8 3 11 16 21 23 17 28 30 25 23 23 25 24 23 23 22 31 30 36 31 28 34 26 25 22 20 19 16 15 9
19 25 23 21 16 18 19 17 26 29 20 23 33 25 21 13 11 10 6 8 14 20 23 23 19 23 25 24 25 25 25 22 23 24 23 27 27 34 35 28 36 38 38 26 19 11 12 10 8
37 17 20 35 25 36 38 25 15 23 29 38 22 20 15 6 9 10 4 9 17 22 21 21 21 23 26 27 27 23 23 20 20 18 21 22 23 26 30 32 32 33 40 29 26 16 17 18 21
27 25 13 27 42 29 6 12 23 22 19 23 19 14 14 12 5 4 4 11 20 22 20 19 18 22 21 23 26 25 28 25 24 20 21 21 20 18 25 27 28 31 32 28 31 26 23 27 25
14 20 23 15 26 15 19 20 18 22 17 8 11 9 11 6 7 4 8 15 20 21 17 13 15 18 20 20 23 22 23 24 25 20 19 23 23 21 21 22 23 23 26 31 26 31 27 24 24
25 11 19 13 11 19 6 2 21 26 29 26 25 18 11 8 2 7 7 16 20 21 15 11 17 18 17 19 22 24 23 21 18 20 16 18 23 20 18 22 19 20 19 22 22 21 22 24 25
17 15 17 19 9 5 11 14 19 23 22 20 30 15 16 15 11 9 18 20 19 21 12 18 15 15 15 17 22 26 28 19 14 15 18 21 20 18 19 17 13 19 19 18 19 23 21 20 19
Wind_Direction_500mb
205 199 240 258 249 159 108 106 77 71 69 66 66 73 68 48 37 76 92 84 88 98 101 91 95 99 107 105 99 62 27 16 23 18 17 24 51 85 96 83 74 77 86 98 110 111 104 121 130
198 259 256 270 360 331 90 86 82 81 87 106 105 94 74 74 82 75 88 92 80 83 85 87 85 85 82 81 96 93 59 25 18 34 65 106 137 134 122 111 100 96 92 100 113 118 117 131 136
218 243 260 216 95 224 83 80 99 102 132 112 76 53 49 359 64 79 80 81 89 78 77 80 76 71 67 63 54 43 40 38 39 64 72 91 148 165 167 153 146 127 108 102 111 131 140 150 154
270 253 214 180 63 72 82 100 109 111 94 85 127 90 83 43 65 92 88 89 68 78 73 80 70 66 64 70 68 70 55 48 27 10 47 92 157 181 184 188 188 174 137 118 124 130 158 166 165
245 229 135 81 85 74 78 86 63 77 78 88 94 90 77 48 78 81 84 84 79 80 80 78 71 64 64 61 66 73 78 61 55 44 345 303 261 239 227 225 225 224 240 236 162 154 166 183 202
279 47 328 95 86 77 71 81 77 75 80 50 92 94 58 87 76 78 82 78 86 79 70 71 64 51 49 58 52 44 36 33 15 350 349 330 279 264 264 260 256 252 255 256 264 255 237 227 230
199 157 100 101 111 94 66 85 79 71 58 47 38 95 95 90 73 82 83 73 67 71 62 55 64 47 34 45 37 32 28 13 4 359 345 335 330 314 289 275 268 268 266 266 264 263 263 258 255
307 348 126 85 122 107 98 73 73 27 66 91 26 126 115 101 98 84 84 80 69 66 67 67 68 71 69 40 38 22 11 4 2 347 340 348 355 345 315 310 279 270 269 270 270 272 272 270 267
66 338 67 33 60 111 142 104 77 72 74 60 61 89 117 118 91 86 85 77 67 63 58 57 49 46 36 29 26 13 10 5 356 338 320 297 267 270 289 296 276 273 276 272 272 270 273 272 275
105 192 71 65 99 119 135 104 125 101 81 81 76 101 106 102 98 85 79 77 69 63 56 53 49 34 25 28 22 21 10 4 3 0 353 344 325 301 286 269 283 285 278 274 270 268 265 268 269
62 75 88 81 91 112 103 95 108 132 72 87 102 100 106 104 98 89 88 83 74 72 67 54 41 37 41 12 14 357 352 348 345 341 342 335 318 313 325 322 300 293 283 283 271 253 250 229 228
85 83 99 113 117 114 102 97 70 78 105 117 111 109 109 104 100 94 86 81 75 65 62 53 40 34 23 19 5 357 344 344 336 333 336 329 320 298 293 286 282 292 292 300 302 276 266 258 247
123 118 123 127 130 117 132 88 104 103 120 120 118 116 113 107 103 95 86 81 72 63 58 42 27 22 12 4 357 349 340 332 333 327 325 325 322 298 266 264 281 280 280 281 278 283 293 302 288
136 141 137 138 124 122 123 128 129 135 132 130 128 124 118 119 119 106 102 82 64 48 35 23 12 9 5 356 349 342 331 327 324 322 318 324 318 310 309 270 277 277 273 254 254 272 286 286 283
145 151 142 150 153 144 137 120 103 137 146 138 135 132 130 130 121 110 100 70 45 26 14 8 357 352 349 347 338 334 326 320 323 320 326 313 297 305 300 297 293 278 269 268 276 279 278 280 276
192 180 165 176 171 151 226 115 136 148 152 148 156 151 144 142 132 111 82 53 25 2 4 356 348 344 339 335 333 327 323 328 326 324 313 310 307 304 302 293 275 286 273 262 259 269 275 277 274
298 300 216 140 181 153 214 118 156 160 164 168 172 169 152 149 138 109 53 15 7 9 5 0 352 341 335 335 333 335 330 330 327 325 323 315 317 311 291 290 291 275 269 264 273 269 267 270 271
188 220 232 177 154 205 201 114 152 164 183 199 174 166 154 146 141 89 44 37 30 18 8 1 347 337 344 341 338 338 337 333 331 320 317 315 314 308 306 298 297 297 293 280 273 274 272 277 267
319 301 317 86 81 230 111 150 168 183 201 186 180 162 160 169 149 126 101 31 19 19 6 354 348 341 352 350 346 340 335 331 329 332 330 328 327 326 313 304 293 297 301 298 290 276 279 273 267
292 287 64 338 215 230 173 145 151 177 192 187 165 173 157 140 153 159 85 23 20 10 360 352 348 345 351 351 347 337 327 334 337 331 330 335 331 330 316 304 296 289 284 284 276 282 273 276 266
51 35 320 18 168 241 311 150 166 187 183 181 175 158 173 155 126 120 85 17 8 360 358 352 349 347 347 349 347 347 356 341 341 339 342 338 340 341 335 319 303 293 290 282 284 291 284 280 275
354 162 269 310 274 296 184 254 169 175 183 191 176 111 74 121 146 102 126 43 356 360 353 349 348 350 347 348 355 354 352 346 339 339 339 354 335 345 350 345 340 314 302 284 294 302 297 291 286
349 336 313 296 284 350 1 75 260 163 181 171 128 146 181 158 122 121 141 95 15 1 355 350 353 347 347 353 353 357 351 347 342 349 347 337 350 356 356 354 346 342 334 326 320 326 313 305 291
321 291 283 272 327 125 235 213 168 161 186 182 159 152 165 152 123 130 121 69 0 355 354 351 355 341 350 354 342 353 351 349 345 343 348 345 353 356 357 9 13 9 346 322 319 321 335 321 302
250 281 293 312 262 300 214 225 51 48 84 137 146 164 128 116 152 171 147 10 353 355 357 357 2 356 346 339 337 334 338 354 346 341 336 344 348 344 354 7 11 9 2 359 348 324 338 347 313
304 351 316 304 330 313 36 16 102 99 129 131 117 78 107 140 146 112 49 5 1 355 358 354 357 352 359 348 350 350 351 349 339 339 348 347 345 346 354 358 358 0 9 27 13 36 62 35 83
332 316 347 299 275 301 123 175 89 110 86 71 123 169 167 145 74 104 9 351 358 355 356 353 356 347 355 356 4 3 357 354 352 347 360 344 342 351 341 358 357 7 23 39 57 70 72 67 80
295 4 324 326 297 297 84 75 48 81 83 153 95 98 149 347 89 55 345 349 355 353 354 12 346 357 349 1 354 356 353 358 357 7 352 345 347 359 350 359 357 18 30 48 63 48 47 50 54
332 25 334 334 43 298 70 121 45 39 35 10 2 85 90 27 126 345 342 345 345 347 355 29 348 351 346 355 349 343 343 356 5 359 3 354 353 346 4 8 4 20 27 41 32 37 35 35 44
29 357 356 331 353 342 318 34 61 38 29 30 343 35 16 355 342 357 327 351 1 339 1 357 349 344 344 352 347 349 343 341 349 1 9 358 339 3 34 5 29 27 32 31 29 32 27 32 42
Wind_Speed_850mb
6 11 10 21 13 12 25 17 11 23 33 34 38 38 38 48 30 16 20 19 20 20 19 19 18 16 14 9 5 4 4 4 3 4 4 5 5 6 6 6 6 7 7 8 10 8 9 11 16
5 16 24 32 6 15 23 29 30 25 23 30 36 45 50 47 46 28 25 28 25 23 21 20 18 16 14 12 9 6 5 5 5 5 4 3 4 5 6 6 6 6 7 7 8 9 13 16 14
7 21 15 10 15 7 27 30 28 27 11 21 24 35 23 19 33 18 26 28 26 28 22 21 19 18 16 15 14 14 12 8 5 7 10 7 7 8 7 6 5 5 6 7 10 12 16 13 12
14 28 22 6 35 33 29 26 34 32 28 30 43 32 25 36 21 23 26 26 25 27 27 21 19 17 18 19 18 15 13 12 9 7 2 4 5 8 9 8 5 3 4 6 8 10 14 14 11
18 31 9 26 29 27 25 31 18 24 7 26 35 35 26 30 31 31 33 28 30 28 29 25 19 18 17 16 15 12 9 8 9 8 4 5 5 7 9 9 8 6 5 2 3 6 8 11 12
37 30 10 26 33 25 24 27 30 25 31 38 37 27 14 33 35 32 32 28 26 24 23 27 24 21 18 17 16 14 9 6 5 5 6 6 8 11 13 15 15 14 13 11 11 9 7 7 8
24 25 28 30 29 30 18 31 27 36 33 25 6 15 12 22 24 26 32 32 30 30 30 30 33 37 28 23 22 19 16 12 9 7 8 10 14 16 17 21 23 23 23 21 21 20 17 16 14
44 12 22 22 28 34 20 29 19 24 20 10 14 10 10 20 21 24 28 31 27 28 28 27 17 20 23 23 23 20 16 14 14 15 13 9 17 18 14 26 24 27 31 30 30 30 26 24 23
67 8 30 30 20 34 25 28 23 24 32 29 20 26 25 24 25 24 30 32 27 32 30 24 22 21 22 24 28 26 24 24 23 20 17 16 16 16 12 19 31 33 30 32 36 35 32 31 27
40 7 37 27 23 28 18 25 23 17 27 29 33 30 30 25 19 24 26 27 28 29 27 27 29 34 37 36 36 36 30 25 29 31 32 31 26 27 28 32 33 32 32 32 35 38 36 32 21
46 30 29 27 25 27 30 26 24 26 19 20 25 26 28 29 28 27 30 31 33 30 26 26 26 25 22 21 22 20 23 25 24 27 30 24 24 23 22 24 18 21 30 22 19 15 24 29 40
22 27 31 27 27 28 28 30 29 27 24 28 28 25 26 28 29 29 31 28 24 22 23 21 21 24 27 23 25 26 26 28 29 30 31 29 24 23 25 25 23 25 19 23 26 33 37 44 44
24 26 27 24 22 27 28 27 30 33 29 25 25 24 26 29 33 32 32 23 19 21 20 19 21 24 25 26 29 30 30 31 34 32 32 33 25 28 32 24 24 27 28 24 21 18 19 24 33
29 29 28 31 32 33 37 35 13 25 26 24 24 23 23 25 24 22 19 15 15 17 19 18 21 26 30 32 36 36 34 36 37 36 35 32 28 27 29 33 25 30 30 29 21 20 26 29 30
34 28 27 30 35 30 32 20 22 29 22 25 22 20 21 23 19 17 12 12 12 13 17 21 21 27 32 34 40 37 38 36 36 32 30 28 31 32 29 27 33 33 38 28 35 34 30 34 33
24 31 18 26 26 25 11 17 25 25 23 20 20 19 19 18 16 13 10 8 11 13 18 21 25 28 33 34 39 38 38 34 30 29 25 39 38 31 34 36 31 31 36 28 27 33 31 37 37
16 20 51 32 26 17 19 27 26 21 21 21 20 20 22 18 14 10 8 11 13 16 19 20 25 26 33 35 37 36 31 28 28 29 26 27 35 35 36 29 32 42 33 31 36 39 35 41 33
25 22 23 3 28 16 9 30 30 24 20 22 27 24 20 16 11 4 7 9 13 15 19 21 23 30 37 33 31 28 27 27 26 26 37 48 38 31 35 34 34 38 30 27 33 31 26 34 36
27 34 17 29 9 11 9 27 23 25 30 22 26 26 21 16 9 4 4 7 11 15 17 24 27 32 32 30 30 29 29 27 24 30 26 45 37 30 29 30 34 33 30 29 29 27 31 27 31
36 30 33 16 10 9 14 23 24 28 29 30 29 28 24 15 17 8 9 8 10 13 19 23 27 32 28 27 30 33 26 24 18 29 33 30 27 28 29 29 30 28 32 31 32 27 28 30 31
23 36 49 24 3 23 15 25 25 26 22 28 24 22 18 31 16 13 10 8 10 14 17 23 25 27 26 31 28 31 26 20 30 24 27 31 26 30 28 28 28 30 31 28 30 27 26 26 23
19 24 17 25 28 29 30 12 33 29 26 31 31 28 13 9 9 4 8 2 5 11 17 21 22 32 22 31 28 30 28 28 23 24 27 30 30 28 32 26 24 19 19 20 22 20 20 20 20
16 25 31 43 32 41 25 16 11 29 24 15 17 28 18 17 6 6 6 4 7 13 20 20 20 26 27 25 27 25 27 23 23 27 28 31 30 33 28 28 27 23 19 19 17 18 19 19 16
8 23 36 25 9 1 18 9 15 13 17 20 26 21 20 15 10 10 8 3 11 16 21 23 17 28 30 25 23 23 25 24 23 23 22 31 30 36 31 28 34 26 25 22 20 19 16 15 9
19 25 23 21 16 18 19 17 26 29 20 23 33 25 21 13 11 10 6 8 14 20 23 23 19 23 25 24 25 25 25 22 23 24 23 27 27 34 35 28 36 38 38 26 19 11 12 10 8
37 17 20 35 25 36 38 25 15 23 29 38 22 20 15 6 9 10 4 9 17 22 21 21 21 23 26 27 27 23 23 20 20 18 21 22 23 26 30 32 32 33 40 29 26 16 17 18 21
27 25 13 27 42 29 6 12 23 22 19 23 19 14 14 12 5 4 4 11 20 22 20 19 18 22 21 23 26 25 28 25 24 20 21 21 20 18 25 27 28 31 32 28 31 26 23 27 25
14 20 23 15 26 15 19 20 18 22 17 8 11 9 11 6 7 4 8 15 20 21 17 13 15 18 20 20 23 22 23 24 25 20 19 23 23 21 21 22 23 23 26 31 26 31 27 24 24
25 11 19 13 11 19 6 2 21 26 29 26 25 18 11 8 2 7 7 16 20 21 15 11 17 18 17 19 22 24 23 21 18 20 16 18 23 20 18 22 19 20 19 22 22 21 22 24 25
17 15 17 19 9 5 11 14 19 23 22 20 30 15 16 15 11 9 18 20 19 21 12 18 15 15 15 17 22 26 28 19 14 15 18 21 20 18 19 17 13 19 19 18 19 23 21 20 19
Wind_Direction_850mb
205 199 240 258 249 159 108 106 77 71 69 66 66 73 68 48 37 76 92 84 88 98 101 91 95 99 107 105 99 62 27 16 23 18 17 24 51 85 96 83 74 77 86 98 110 111 104 121 130
198 259 256 270 360 331 90 86 82 81 87 106 105 94 74 74 82 75 88 92 80 83 85 87 85 85 82 81 96 93 59 25 18 34 65 106 137 134 122 111 100 96 92 100 113 118 117 131 136
218 243 260 216 95 224 83 80 99 102 132 112 76 53 49 359 64 79 80 81 89 78 77 80 76 71 67 63 54 43 40 38 39 64 72 91 148 165 167 153 146 127 108 102 111 131 140 150 154
270 253 214 180 63 72 82 100 109 111 94 85 127 90 83 43 65 92 88 89 68 78 73 80 70 66 64 70 68 70 55 48 27 10 47 92 157 181 184 188 188 174 137 118 124 130 158 166 165
245 229 135 81 85 74 78 86 63 77 78 88 94 90 77 48 78 81 84 84 79 80 80 78 71 64 64 61 66 73 78 61 55 44 345 303 261 239 227 225 225 224 240 236 162 154 166 183 202
279 47 328 95 86 77 71 81 77 75 80 50 92 94 58 87 76 78 82 78 86 79 70 71 64 51 49 58 52 44 36 33 15 350 349 330 279 264 264 260 256 252 255 256 264 255 237 227 230
199 157 100 101 111 94 66 85 79 71 58 47 38 95 95 90 73 82 83 73 67 71 62 55 64 47 34 45 37 32 28 13 4 359 345 335 330 314 289 275 268 268 266 266 264 263 263 258 255
307 348 126 85 122 107 98 73 73 27 66 91 26 126 115 101 98 84 84 80 69 66 67 67 68 71 69 40 38 22 11 4 2 347 340 348 355 345 315 310 279 270 269 270 270 272 272 270 267
66 338 67 33 60 111 142 104 77 72 74 60 61 89 117 118 91 86 85 77 67 63 58 57 49 46 36 29 26 13 10 5 356 338 320 297 267 270 289 296 276 273 276 272 272 270 273 272 275
105 192 71 65 99 119 135 104 125 101 81 81 76 101 106 102 98 85 79 77 69 63 56 53 49 34 25 28 22 21 10 4 3 0 353 344 325 301 286 269 283 285 278 274 270 268 265 268 269
62 75 88 81 91 112 103 95 108 132 72 87 102 100 106 104 98 89 88 83 74 72 67 54 41 37 41 12 14 357 352 348 345 341 342 335 318 313 325 322 300 293 283 283 271 253 250 229 228
85 83 99 113 117 114 102 97 70 78 105 117 111 109 109 104 100 94 86 81 75 65 62 53 40 34 23 19 5 357 344 344 336 333 336 329 320 298 293 286 282 292 292 300 302 276 266 258 247
123 118 123 127 130 117 132 88 104 103 120 120 118 116 113 107 103 95 86 81 72 63 58 42 27 22 12 4 357 349 340 332 333 327 325 325 322 298 266 264 281 280 280 281 278 283 293 302 288
136 141 137 138 124 122 123 128 129 135 132 130 128 124 118 119 119 106 102 82 64 48 35 23 12 9 5 356 349 342 331 327 324 322 318 324 318 310 309 270 277 277 273 254 254 272 286 286 283
145 151 142 150 153 144 137 120 103 137 146 138 135 132 130 130 121 110 100 70 45 26 14 8 357 352 349 347 338 334 326 320 323 320 326 313 297 305 300 297 293 278 269 268 276 279 278 280 276
192 180 165 176 171 151 226 115 136 148 152 148 156 151 144 142 132 111 82 53 25 2 4 356 348 344 339 335 333 327 323 328 326 324 313 310 307 304 302 293 275 286 273 262 259 269 275 277 274
298 300 216 140 181 153 214 118 156 160 164 168 172 169 152 149 138 109 53 15 7 9 5 0 352 341 335 335 333 335 330 330 327 325 323 315 317 311 291 290 291 275 269 264 273 269 267 270 271
188 220 232 177 154 205 201 114 152 164 183 199 174 166 154 146 141 89 44 37 30 18 8 1 347 337 344 341 338 338 337 333 331 320 317 315 314 308 306 298 297 297 293 280 273 274 272 277 267
319 301 317 86 81 230 111 150 168 183 201 186 180 162 160 169 149 126 101 31 19 19 6 354 348 341 352 350 346 340 335 331 329 332 330 328 327 326 313 304 293 297 301 298 290 276 279 273 267
292 287 64 338 215 230 173 145 151 177 192 187 165 173 157 140 153 159 85 23 20 10 360 352 348 345 351 351 347 337 327 334 337 331 330 335 331 330 316 304 296 289 284 284 276 282 273 276 266
51 35 320 18 168 241 311 150 166 187 183 181 175 158 173 155 126 120 85 17 8 360 358 352 349 347 347 349 347 347 356 341 341 339 342 338 340 341 335 319 303 293 290 282 284 291 284 280 275
354 162 269 310 274 296 184 254 169 175 183 191 176 111 74 121 146 102 126 43 356 360 353 349 348 350 347 348 355 354 352 346 339 339 339 354 335 345 350 345 340 314 302 284 294 302 297 291 286
349 336 313 296 284 350 1 75 260 163 181 171 128 146 181 158 122 121 141 95 15 1 355 350 353 347 347 353 353 357 351 347 342 349 347 337 350 356 356 354 346 342 334 326 320 326 313 305 291
321 291 283 272 327 125 235 213 168 161 186 182 159 152 165 152 123 130 121 69 0 355 354 351 355 341 350 354 342 353 351 349 345 343 348 345 353 356 357 9 13 9 346 322 319 321 335 321 302
250 281 293 312 262 300 214 225 51 48 84 137 146 164 128 116 152 171 147 10 353 355 357 357 2 356 346 339 337 334 338 354 346 341 336 344 348 344 354 7 11 9 2 359 348 324 338 347 313
304 351 316 304 330 313 36 16 102 99 129 131 117 78 107 140 146 112 49 5 1 355 358 354 357 352 359 348 350 350 351 349 339 339 348 347 345 346 354 358 358 0 9 27 13 36 62 35 83
332 316 347 299 275 301 123 175 89 110 86 71 123 169 167 145 74 104 9 351 358 355 356 353 356 347 355 356 4 3 357 354 352 347 360 344 342 351 341 358 357 7 23 39 57 70 72 67 80
295 4 324 326 297 297 84 75 48 81 83 153 95 98 149 347 89 55 345 349 355 353 354 12 346 357 349 1 354 356 353 358 357 7 352 345 347 359 350 359 357 18 30 48 63 48 47 50 54
332 25 334 334 43 298 70 121 45 39 35 10 2 85 90 27 126 345 342 345 345 347 355 29 348 351 346 355 349 343 343 356 5 359 3 354 353 346 4 8 4 20 27 41 32 37 35 35 44
29 357 356 331 353 342 318 34 61 38 29 30 343 35 16 355 342 357 327 351 1 339 1 357 349 344 344 352 347 349 343 341 349 1 9 358 339 3 34 5 29 27 32 31 29 32 27 32 42